Probability
0 0 0 0 0 0 0 0 0 0 0 0 0 0 0 0 0 0 0 0 0 0 0 0 0 0 0 0 0 0 0 0 0 0 0 0 0 0
0 0 0 0 0 0 0 0 0 0 0 0 0 0 0 0 0 0 0 0 0 0 0 0 0 0 0 0 0 0 0 0 0 0 0 0 0 0
0 0 0 0 0 0 0 0 0 0 0 0 0 0 0 0 0 0 0 0 0 0 0 0 0 0 0 0 0 0 0 0 0 0 0 0 0 0
0 0 0 0 0 0 0 0 0 0 0 0 0 0 0 0 0 0 0 0 0 0 0 0 0 0 0 0 0 0 0 0 0 0 0 0 0 0
0 0 0 0 0 0 0 0 0 0 0 0 0 0 0 0 0 0 0 0 0 0 0 0 0 0 0 0 0 0 0 0 0 0 0 0 0 0
0 0 0 0 0 0 0 0 0 0 0 0 0 0 0 0 0 0 0 0 0 0 0 0 0 0 0 0 0 0 0 0 0 0 0 0 0 0
0 0 0 0 0 0 0 0 0 0 0 0 0 0 0 0 0 0 0 0 0 0 0 0 0 0 0 0 0 0 0 0 0 0 0 0 0 0
0 0 0 0 0 0 0 0 0 0 0 0 0 0 0 0 0 0 0 0 0 0 0 0 0 0 0 0 0 0 0 0 0 0 0 0 0 0
0 0 0 0 0 0 0 0 0 0 0 0 0 0 0 0 0 0 0 0 0 0 0 0 0 0 0 0 0 0 0 0 0 0 0 0 0 0
0 0 0 0 0 0 0 0 0 0 0 0 0 0 0 0 0 0 0 0 0 0 0 0 0 0 0 0 0 0 0 0 0 0 0 0 0 0
0 0 0 0 0 0 0 0 0 0 0 0 0 0 0 0 0 0 0 0 0 0 0 0 0 0 0 0 0 0 0 0 0 0 0 0 0 0
0 0 0 0 0 0 0 0 0 0 0 0 0 0 0 0 0 0 0 0 0 0 0 0 0 0 0 0 0 0 0 0 0 0 0 0 0 0
0 0 0 0 0 0 0 0 0 0 0 0 0 0 0 0 0 0 0 0 0 0 0 0 0 0 0 0 0 0 0 0 0 0 0 0 0 0
0 0 0 0 0 0 0 0 0 0 0 0 0 0 0 0 0 0 0 0 0 0 0 0 0 0 0 0 0 0 0 0 0 0 0 0 0 0
0 0 0 0 0 0 0 0 0 0 0 0 0 0 0 0 0 0 0 0 0 0 0 0 0 0 0 0 0 0 0 0 0 0 0 0 0 0
0 0 0 0 0 0 0 0 0 0 0 0 0 0 0 0 0 0 0 0 0 0 0 0 0 0 0 0 0 0 0 0 0 0 0 0 0 0
0 0 0 0 0 0 0 0 0 0 0 0 0 0 0 0 0 0 0 0 0 0 0 0 0 0 0 0 0 0 0 0 0 0 0 0 0 0
0 0 0 0 0 0 0 0 0 0 0 0 0 0 0 0 0 0 0 0 0 0 0 0 0 0 0 0 0 0 0 0 0 0 0 0 0 0
0 0 0 0 0 0 0 0 0 0 0 0 0 0 0 0 0 0 0 0 0 0 0 0 0 0 0 0 0 0 0 0 0 0 0 0 0 0
0 0 0 0 0 0 0 0 0 0 0 0 0 0 0 0 0 0 0 0 0 0 0 0 0 0 0 0 0 0 0 0 0 0 0 0 0 0
0 0 0 0 0 0 0 0 0 0 0 0 0 0 0 0 0 0 0 0 0 0 0 0 0 0 0 0 0 0 0 0 0 0 0 0 0 0
0 0 0 0 0 0 0 0 0 0 0 0 0 0 0 0 0 0 0 0 0 0 0 0 0 0 0 0 0 0 0 0 0 0 0 0 0 0
0 0 0 0 0 0 0 0 0 0 0 0 0 0 0 0 0 0 0 0 0 0 0 0 0 0 0 0 0 0 0 0 0 0 0 0 0 0
Wind_Speed
0 0 0 0 0 0 0 1 2 3 3 3 2 1 1 1 3 3 3 7 9 10 10 11 11 11 11 11 11 11 10 9 8 6 5 5 5 5
1 1 1 0 1 1 0 0 1 2 2 2 2 1 1 2 4 3 3 7 8 9 9 10 10 10 11 11 11 11 11 10 9 8 8 7 7 6
1 1 1 1 1 1 1 0 0 1 2 2 2 1 2 2 2 2 3 3 3 7 8 8 9 10 10 11 11 11 11 10 10 9 8 8 8 6
1 1 1 1 1 1 1 0 0 0 2 3 2 1 2 2 2 2 2 3 2 6 7 7 8 8 9 9 10 10 10 10 10 10 10 9 8 7
2 2 1 2 1 1 1 1 0 1 2 3 3 2 1 1 2 2 3 3 3 5 6 6 7 8 8 8 9 9 9 9 9 9 9 9 8 8
2 2 2 2 2 1 1 1 1 2 3 3 3 2 2 2 2 2 1 2 2 4 5 5 6 7 7 7 8 8 7 7 7 7 7 7 7 7
2 2 2 2 3 2 1 1 2 2 3 3 3 2 2 2 1 1 1 1 2 2 2 3 3 3 4 5 5 6 6 6 6 6 6 6 6 6
2 2 1 2 3 4 4 4 4 4 3 3 2 3 3 2 2 2 2 1 1 1 1 2 2 2 2 2 3 4 4 5 5 5 5 5 5 5
3 2 1 2 3 3 4 6 5 4 5 4 4 4 4 4 4 2 2 1 1 1 1 1 2 1 2 3 4 3 4 4 4 4 5 5 5 5
3 3 3 2 2 3 3 3 3 3 3 2 3 3 3 4 4 4 3 2 1 1 1 0 1 2 2 3 4 3 4 4 4 5 5 5 5 6
3 3 4 3 5 6 4 3 2 2 3 6 6 5 7 7 6 4 3 2 1 0 1 1 1 2 2 2 4 5 5 5 5 6 6 6 6 6
2 3 6 6 7 7 5 4 3 1 1 3 4 4 3 3 5 4 4 3 1 1 0 1 0 1 2 2 2 2 3 5 7 7 7 7 6 3
3 2 3 8 8 8 6 4 5 4 3 3 2 2 2 2 2 2 2 3 3 2 1 2 1 1 0 2 3 1 1 2 3 4 6 7 7 4
4 3 4 9 9 9 6 6 7 5 3 3 2 2 2 1 1 2 2 2 2 3 3 3 2 2 1 1 3 2 2 2 2 2 2 6 7 9
5 8 9 10 9 6 8 9 6 3 3 3 3 3 2 2 2 1 1 1 0 1 2 3 3 2 2 2 3 2 3 3 2 2 2 3 3 3
5 8 10 10 7 6 6 4 3 4 4 4 3 2 2 2 2 2 2 1 1 2 2 3 4 4 3 4 4 5 3 3 2 2 3 4 4 4
4 2 2 2 3 3 3 3 3 3 4 3 3 3 3 3 3 2 2 2 2 2 2 1 3 4 5 4 5 6 5 5 5 4 4 5 4 4
7 4 5 5 6 5 5 5 4 5 4 4 4 4 4 4 4 3 3 3 3 3 3 2 1 1 2 5 9 7 5 5 4 4 4 4 6 4
8 6 6 6 6 6 5 5 5 5 5 5 5 5 5 4 4 4 4 4 4 4 4 3 3 3 3 4 4 7 5 3 3 3 4 4 6 6
6 6 7 6 6 6 6 6 5 5 5 5 5 5 6 5 5 5 5 6 5 5 4 4 5 6 6 4 4 4 7 5 3 4 4 4 6 9
7 6 7 7 7 7 7 6 6 6 6 6 6 6 6 6 6 6 6 9 8 5 6 6 6 9 4 2 5 5 4 8 8 5 4 4 5 4
7 7 7 7 7 7 7 6 6 7 7 7 7 6 6 6 7 8 7 7 7 7 7 5 3 4 4 6 8 6 5 5 8 13 14 11 5 4
7 7 6 7 7 6 6 7 8 7 7 7 7 7 7 7 7 7 7 7 7 7 6 5 4 5 6 7 7 7 8 6 5 6 7 12 17 20
Wind_Direction
136 116 133 52 6 330 281 219 207 210 194 154 156 94 53 46 53 39 18 39 47 51 51 47 43 39 38 40 41 41 44 54 58 63 76 75 67 65
111 107 94 67 43 23 10 282 238 211 171 135 142 137 90 80 70 49 32 43 44 52 53 49 46 43 43 43 42 42 45 50 56 60 67 67 64 60
91 111 105 82 70 30 36 74 240 176 157 124 106 109 92 87 62 46 38 35 26 45 52 51 50 50 48 45 43 45 45 47 51 55 55 57 56 50
126 116 111 96 82 50 65 87 115 123 142 143 129 119 101 120 96 71 40 33 22 42 50 52 53 53 50 47 45 45 45 47 48 48 47 46 45 41
135 134 126 120 103 61 68 80 74 79 104 130 132 116 99 106 88 62 48 22 21 32 38 45 51 51 49 47 47 47 46 45 46 46 44 40 37 32
99 109 114 134 148 139 108 101 108 102 105 114 115 107 99 88 93 89 50 20 14 11 19 32 40 41 41 45 45 45 44 44 46 45 44 41 34 28
95 94 110 137 148 149 143 146 134 123 120 119 120 116 120 125 137 124 109 21 5 10 360 8 17 19 13 17 30 38 39 40 40 40 39 35 30 23
139 117 98 86 105 102 109 120 141 144 146 139 140 151 161 157 139 130 123 110 284 335 20 350 14 9 346 335 1 32 37 37 35 32 26 20 13 6
163 158 143 116 89 73 78 69 68 103 145 153 157 170 167 171 152 140 143 152 205 279 32 334 354 339 326 336 351 32 31 26 19 11 4 359 353 345
174 174 165 154 152 136 109 81 56 48 95 119 149 160 162 159 158 155 152 131 78 10 51 107 332 320 326 332 342 20 20 15 10 3 355 348 342 337
189 185 179 184 187 164 140 126 92 45 85 120 132 141 149 151 143 121 123 111 115 317 18 94 331 322 321 321 338 2 7 2 356 351 345 338 329 334
192 202 201 198 199 180 160 157 158 167 97 90 86 80 77 111 134 139 146 139 150 224 271 96 47 18 332 311 322 343 358 356 355 347 342 336 329 345
194 204 222 214 210 200 184 179 194 176 155 138 121 101 83 83 92 114 134 148 160 209 188 121 126 84 187 301 310 317 330 324 331 332 339 336 329 327
200 202 217 221 217 213 200 200 203 176 149 152 159 173 175 179 173 156 147 151 170 191 186 156 164 169 157 287 287 306 304 284 286 298 312 325 326 319
202 208 214 221 219 218 217 215 205 169 162 179 194 201 197 184 162 149 144 145 213 230 206 193 185 185 188 217 260 282 305 294 275 274 290 293 289 294
205 217 218 221 214 210 222 224 191 183 184 195 197 190 165 161 174 173 175 176 219 285 259 214 203 197 218 231 243 260 252 272 287 284 288 284 272 259
174 175 183 191 199 198 205 210 203 204 210 189 188 187 188 187 193 183 180 177 196 218 251 250 222 217 224 225 245 250 253 256 260 271 279 284 272 257
198 195 204 209 213 214 216 217 213 213 209 201 198 199 200 199 200 193 191 197 217 230 231 226 219 244 269 256 230 241 246 250 253 250 246 273 283 265
213 209 212 213 216 216 215 216 218 213 201 201 205 205 202 200 199 204 206 212 225 231 228 214 206 208 238 271 271 223 215 233 247 256 247 246 268 278
212 213 217 216 216 217 217 217 218 211 204 207 207 205 201 199 203 209 210 216 225 229 230 219 215 215 220 232 253 262 228 225 237 257 265 265 266 274
218 218 217 216 217 216 217 215 213 213 210 205 208 206 203 203 211 214 215 227 226 225 231 232 228 227 216 216 254 257 242 236 236 237 247 272 282 274
223 223 222 219 218 217 217 215 216 216 213 212 211 208 205 204 212 214 216 220 224 226 234 234 212 208 204 227 248 260 265 260 260 262 257 246 243 250
225 223 223 221 220 219 218 217 217 220 215 213 211 209 205 208 212 214 218 221 224 227 228 229 216 213 224 232 247 258 264 267 267 266 262 259 258 259